This demonstration page uses our WeatherBlox Daily Observations layout. Learn more.

Left ArrowRight Arrow

44.8408, -93.29828

Hourly Observations for September 5, 2021

Temp ( °F °C ) Dew Point ( °F °C ) Humidity (%) Winds ( mph kmh ) Pressure ( in mb ) Visibility ( mi km ) Precip ( " mm )
12:53 am 00:53 Clear 64 17.8 52 11.1 65 65 SW 5 7 29.89 1012 10 16 0.00 0.00
1:53 am 01:53 Clear 62 16.7 52 11.1 70 70 WSW 7 11 29.89 1012 10 16 0.00 0.00
2:53 am 02:53 Mostly Cloudy 63 17.2 52 11.1 68 68 WSW 5 7 29.88 1012 10 16 0.00 0.00
3:53 am 03:53 Clear 61 16.1 53 11.7 75 75 WSW 5 7 29.89 1012 10 16 0.00 0.00
4:53 am 04:53 Mostly Clear 59 15 53 11.7 81 81 Calm 29.88 1012 10 16 0.00 0.00
5:53 am 05:53 Clear 58 14.4 53 11.7 84 84 SW 5 7 29.88 1012 10 16 0.00 0.00
6:53 am 06:53 Partly Cloudy 58 14.4 53 11.7 84 84 SSW 5 7 29.89 1012 10 16 0.00 0.00
7:53 am 07:53 Mostly Cloudy 59 15 54 12.2 83 83 SW 5 7 29.90 1013 10 16 0.00 0.00
8:53 am 08:53 Mostly Cloudy 61 16.1 55 12.8 81 81 SW 5 7 29.90 1013 10 16 0.00 0.00
9:53 am 09:53 Partly Cloudy 65 18.3 55 12.8 70 70 Calm 29.91 1013 10 16 0.00 0.00
10:53 am 10:53 Mostly Sunny 68 20 56 13.3 65 65 Calm 29.91 1013 10 16 0.00 0.00
11:53 am 11:53 Sunny 72 22.2 55 12.8 55 55 WSW 6 9 29.90 1013 10 16 0.00 0.00
12:53 pm 12:53 Mostly Sunny 74 23.3 54 12.2 50 50 NW 6 9 29.89 1012 10 16 0.00 0.00
1:53 pm 13:53 Mostly Sunny 76 24.4 55 12.8 48 48 NW 9 15 29.87 1012 10 16 0.00 0.00
2:53 pm 14:53 Mostly Cloudy 78 25.6 54 12.2 43 43 NW 9 15 29.85 1011 10 16 0.00 0.00
3:53 pm 15:53 Mostly Sunny 77 25 51 10.6 40 40 W 14 22 29.85 1011 10 16 0.00 0.00
4:53 pm 16:53 Partly Cloudy 77 25 51 10.6 40 40 NW 15 24 29.85 1011 10 16 0.00 0.00
5:53 pm 17:53 Mostly Sunny 76 24.4 51 10.6 42 42 WNW 15 24 29.85 1011 10 16 0.00 0.00
6:53 pm 18:53 Mostly Sunny 73 22.8 52 11.1 48 48 NW 10 17 29.85 1011 10 16 0.00 0.00
7:53 pm 19:53 Mostly Clear 71 21.7 51 10.6 49 49 NW 9 15 29.88 1012 10 16 0.00 0.00
8:53 pm 20:53 Mostly Clear 68 20 51 10.6 55 55 NW 6 9 29.89 1012 10 16 0.00 0.00
9:53 pm 21:53 Mostly Clear 66 18.9 52 11.1 61 61 NNW 5 7 29.91 1013 10 16 0.00 0.00
10:53 pm 22:53 Mostly Clear 65 18.3 51 10.6 61 61 NW 5 7 29.90 1013 10 16 0.00 0.00
11:53 pm 23:53 Mostly Clear 63 17.2 50 10 63 63 NW 6 9 29.92 1013 10 16 0.00 0.00

Powered by AerisWeather